WGS SV-1

operational
NORAD ID: 32258 Int'l Des: 2007-046 Owner: AFSMC Country: US
HEOCIRCULARGSO

WGS SV-1について

説明を読み込み中...

リアルタイム位置

3D地球を読み込み中...

次回通過

高度履歴

Altitude vs Time

uPlot chart will show altitude changes over time

軌道要素

1 32258U 07046A 25278.09003395 -.00000266 00000-0 00000+0 0 9994
2 32258 0.1300 87.2984 0000427 137.5702 139.0776 1.00271411 49779
Epoch: Oct 5, 2025 • Age: 9 hours

現在のステータス

高度 35786.1 km
速度 3.07 km/s
衛星直下点 0.07°N, 42.51°W
打ち上げ日 Oct 11, 2007
運用期間 17.9 years
タイプ other

技術仕様

分類 Payload
質量 5768.00 kg
乾燥質量 2500.00 kg
総質量 5768.00 kg
長さ 6.00 m
直径 3.00 m
スパン 46.00 m
形状 Box + 2 Pan
製造者 BOES
バスタイプ BSS-702HP
フェーズステータス In Orbit
所有者/国 AFSMC/US

大規模コンステレーション

Loading constellations...